�N����,����,�~����,�C��,���x,�C��,����,���ϕ���,�ő�u�ԕ���,�ő厞����,���˗�,�I�_���x,�n�����x
"21/09/01","01:00",0.0,23.2,73.5,1008.3,331.7,1.6,3.4,321.4,0.00,18.2,26.9
"21/09/01","02:00",0.0,22.1,78.0,1007.1,330.2,2.0,2.9,345.4,0.00,18.1,26.5
"21/09/01","03:00",0.0,21.7,78.4,1007.1,322.7,0.8,3.3,332.7,0.00,17.8,26.4
"21/09/01","04:00",0.0,21.6,80.0,1007.1,331.4,1.7,3.5,328.1,0.00,18.0,26.2
"21/09/01","05:00",0.0,21.2,81.8,1007.1,328.0,1.7,3.1,343.2,0.00,18.0,25.8
"21/09/01","06:00",0.0,21.8,79.7,1006.9,323.5,1.7,3.6,346.1,0.00,18.2,25.8
"21/09/01","07:00",0.0,22.8,80.9,1006.9,313.5,0.7,2.2,323.6,0.12,19.4,25.6
"21/09/01","08:00",0.0,23.9,78.6,1006.7,275.0,0.7,1.8,338.9,0.34,20.0,25.5
"21/09/01","09:00",0.0,25.0,77.6,1006.7,301.4,0.3,1.9,330.3,0.29,20.9,25.6
"21/09/01","10:00",0.0,27.7,64.3,1006.4,23.4,0.5,1.4,353.1,1.09,20.4,25.9
"21/09/01","11:00",0.0,28.2,65.2,1006.2,330.6,0.7,1.7,323.1,1.19,21.1,26.0
"21/09/01","12:00",0.0,30.1,61.3,1006.7,132.6,1.0,2.4,343.8,1.63,21.9,26.2
"21/09/01","13:00",0.0,30.2,63.3,1006.2,356.0,0.8,2.5,336.8,1.36,22.5,26.5
"21/09/01","14:00",0.0,30.7,65.2,1005.2,350.1,1.2,2.0,98.4,1.40,23.5,26.9
"21/09/01","15:00",0.0,31.4,65.6,1004.8,287.3,0.6,2.7,147.4,1.30,24.2,27.0
"21/09/01","16:00",0.0,30.2,67.5,1003.8,256.9,1.3,3.4,353.0,0.71,23.6,27.1
"21/09/01","17:00",0.0,29.5,72.2,1002.4,342.9,0.7,2.6,344.2,0.34,24.0,27.2
"21/09/01","18:00",0.0,28.9,77.1,1001.5,252.0,0.8,2.5,272.6,0.08,24.5,27.2
"21/09/01","19:00",0.0,27.6,80.6,1002.2,300.4,0.8,3.7,238.5,0.00,24.0,27.2
"21/09/01","20:00",0.0,27.9,76.3,1003.1,294.7,1.1,4.1,333.9,0.00,23.4,26.9
"21/09/01","21:00",0.0,27.5,78.2,1003.1,307.2,1.2,3.6,273.5,0.00,23.4,27.0
"21/09/01","22:00",0.0,27.4,78.2,1002.6,300.6,0.6,3.3,337.2,0.00,23.3,26.7
"21/09/01","23:00",0.0,27.0,80.0,1002.6,271.4,1.3,3.3,352.7,0.00,23.3,26.8
"21/09/01","24:00",0.0,26.4,80.9,1002.2,341.2,1.2,2.5,216.4,0.00,22.9,26.5
"21/09/02","01:00",0.0,25.6,84.7,1002.2,316.9,0.5,2.1,344.5,0.00,22.9,26.5
"21/09/02","02:00",0.6,25.1,88.4,1002.2,55.2,0.3,1.9,348.5,0.00,23.1,26.6
"21/09/02","03:00",2.4,24.9,90.6,1001.7,355.2,0.6,1.3,341.4,0.00,23.3,26.5
"21/09/02","04:00",0.4,24.5,91.9,1001.7,272.7,1.1,4.3,228.9,0.00,23.1,26.4
"21/09/02","05:00",0.2,24.5,92.1,1001.9,359.9,0.7,3.7,228.6,0.00,23.2,26.2
"21/09/02","06:00",0.2,24.2,92.9,1002.2,320.0,1.0,1.9,325.5,0.00,23.0,26.2
"21/09/02","07:00",0.0,24.6,92.6,1001.9,323.5,1.2,3.9,335.4,0.01,23.4,26.0
"21/09/02","08:00",0.0,24.7,90.9,1002.2,296.6,1.5,3.9,331.9,0.13,23.2,26.1
"21/09/02","09:00",1.6,24.8,90.3,1002.4,322.6,0.8,2.7,264.3,0.18,23.1,26.0
"21/09/02","10:00",0.4,24.9,90.5,1002.6,320.6,1.0,2.9,323.2,0.39,23.3,26.1
"21/09/02","11:00",0.6,25.0,89.9,1001.9,342.3,0.5,2.5,351.1,0.38,23.3,26.0
"21/09/02","12:00",5.6,25.0,91.1,1001.7,352.1,1.1,2.9,190.9,0.51,23.5,26.0
"21/09/02","13:00",0.2,26.5,89.3,1001.5,323.5,1.0,3.2,332.7,1.21,24.6,26.1
"21/09/02","14:00",0.0,26.1,87.9,1000.8,335.4,1.6,3.3,337.7,0.67,24.0,26.2
"21/09/02","15:00",0.4,25.6,86.2,1001.0,339.6,1.6,3.5,339.0,0.48,23.2,26.4
"21/09/02","16:00",4.4,24.5,90.3,1001.5,319.4,0.8,2.7,335.7,0.30,22.8,26.3
"21/09/02","17:00",0.0,24.3,90.9,1001.5,328.5,1.2,3.1,343.3,0.28,22.8,26.3
"21/09/02","18:00",0.0,24.6,90.7,1001.9,237.5,0.3,2.7,329.4,0.19,23.0,26.1
"21/09/02","19:00",0.0,23.5,91.3,1002.6,338.3,0.8,2.0,342.4,0.00,22.0,26.4
"21/09/02","20:00",0.0,23.0,92.4,1002.9,334.1,1.0,2.1,337.3,0.00,21.7,26.1
"21/09/02","21:00",0.2,22.6,93.3,1003.1,324.0,1.0,2.1,333.6,0.00,21.5,26.3
"21/09/02","22:00",0.2,22.3,94.1,1003.4,330.3,1.3,2.6,345.6,0.00,21.3,25.8
"21/09/02","23:00",0.0,21.8,94.3,1003.8,331.8,2.1,5.0,341.1,0.00,20.9,25.9
"21/09/02","24:00",0.0,21.6,94.2,1003.4,324.4,1.3,4.0,339.8,0.00,20.7,25.9
"21/09/03","01:00",0.2,21.6,94.3,1003.4,342.5,1.3,3.3,343.8,0.00,20.7,25.6
"21/09/03","02:00",0.0,21.3,94.3,1003.1,351.2,1.3,3.6,350.4,0.00,20.4,25.4
"21/09/03","03:00",0.0,21.4,94.2,1003.4,354.6,1.1,3.5,341.4,0.00,20.5,25.4
"21/09/03","04:00",0.0,21.3,93.8,1002.9,327.0,1.0,3.1,337.9,0.00,20.3,25.3
"21/09/03","05:00",0.0,21.4,93.7,1002.9,329.0,1.7,2.8,326.0,0.00,20.4,25.3
"21/09/03","06:00",0.0,21.4,93.7,1003.1,329.7,1.8,3.9,333.5,0.00,20.4,25.2
"21/09/03","07:00",0.0,21.9,93.5,1003.6,318.0,1.7,3.3,320.9,0.05,20.8,25.2
"21/09/03","08:00",0.0,22.3,92.9,1004.1,329.1,1.8,3.4,343.9,0.11,21.1,25.0
"21/09/03","09:00",0.0,22.6,92.1,1004.1,291.5,1.0,2.5,319.0,0.18,21.3,25.2
"21/09/03","10:00",1.4,22.6,92.2,1004.8,321.0,0.8,1.7,325.5,0.14,21.3,25.0
"21/09/03","11:00",2.8,22.4,93.1,1004.8,265.2,0.8,1.6,263.9,0.03,21.3,25.1
"21/09/03","12:00",4.2,22.4,93.7,1004.8,254.1,0.8,1.7,236.5,0.08,21.4,24.9
"21/09/03","13:00",1.0,22.5,94.0,1004.1,225.7,0.3,1.2,309.8,0.27,21.5,24.8
"21/09/03","14:00",0.8,23.1,94.2,1004.3,281.0,0.5,1.8,210.7,0.50,22.2,25.0
"21/09/03","15:00",0.6,22.9,94.0,1003.6,223.3,0.2,1.3,0.5,0.20,21.9,24.9
"21/09/03","16:00",1.0,22.8,94.2,1003.4,7.7,0.8,1.9,227.3,0.03,21.9,25.1
"21/09/03","17:00",0.6,22.9,94.4,1003.4,237.0,0.8,1.8,208.1,0.05,22.0,25.0
"21/09/03","18:00",0.0,23.2,94.5,1004.1,356.4,0.6,2.2,205.2,0.13,22.3,24.9
"21/09/03","19:00",0.0,22.4,94.8,1004.8,292.2,0.8,1.7,309.2,0.01,21.6,25.2
"21/09/03","20:00",0.2,22.2,95.2,1005.2,290.9,1.0,2.0,323.9,0.00,21.4,25.0
"21/09/03","21:00",0.0,21.9,95.5,1006.0,288.8,0.7,1.8,318.5,0.00,21.2,25.2
"21/09/03","22:00",0.0,21.9,95.7,1005.7,285.2,1.1,2.1,330.5,0.00,21.2,24.9
"21/09/03","23:00",0.0,22.0,95.9,1005.5,272.1,0.8,2.1,313.9,0.00,21.4,24.9
"21/09/03","24:00",1.0,21.5,96.2,1006.2,323.3,1.2,3.3,343.6,0.00,20.9,24.7
"21/09/04","01:00",0.8,21.4,96.4,1005.2,317.5,0.8,2.7,333.7,0.00,20.8,24.6
"21/09/04","02:00",1.8,21.5,96.5,1005.2,295.9,0.7,2.4,344.0,0.00,21.0,24.7
"21/09/04","03:00",0.0,21.6,96.6,1005.0,293.7,0.7,2.2,337.4,0.00,21.1,24.5
"21/09/04","04:00",0.0,21.5,96.7,1004.8,285.1,0.0,1.8,319.2,0.00,21.0,24.4
"21/09/04","05:00",0.0,21.6,96.8,1005.5,331.5,0.2,1.6,339.9,0.00,21.1,24.5
"21/09/04","06:00",0.4,21.7,96.9,1006.2,339.3,0.8,2.2,325.6,0.00,21.2,24.3
"21/09/04","07:00",0.4,21.8,97.0,1005.5,229.3,0.3,1.7,352.4,0.00,21.3,24.5
"21/09/04","08:00",0.2,22.5,97.0,1006.0,346.6,0.7,2.2,244.9,0.10,22.0,24.5
"21/09/04","09:00",0.0,23.7,96.7,1006.0,164.2,0.5,2.1,338.0,0.49,23.2,24.3
"21/09/04","10:00",0.0,24.6,96.1,1005.7,301.0,0.8,1.9,342.6,0.97,24.0,24.7
"21/09/04","11:00",0.0,26.3,94.9,1005.0,269.6,0.2,1.9,327.2,1.06,25.5,24.7
"21/09/04","12:00",0.0,26.7,92.2,1004.1,326.6,0.8,2.5,347.1,0.97,25.4,24.8
"21/09/04","13:00",0.0,26.8,85.3,1004.5,334.7,0.7,1.7,230.0,0.56,24.2,25.3
"21/09/04","14:00",0.0,26.4,87.6,1005.0,306.2,0.7,2.0,334.7,0.43,24.2,25.2
"21/09/04","15:00",0.0,26.3,86.3,1004.3,289.1,1.1,3.7,338.6,0.70,23.9,25.3
"21/09/04","16:00",0.0,26.4,83.2,1004.3,311.3,1.6,3.6,306.0,0.54,23.4,25.2
"21/09/04","17:00",1.6,24.5,89.0,1006.0,324.4,1.5,3.5,342.7,0.10,22.6,25.4
"21/09/04","18:00",0.0,23.7,89.8,1006.4,324.3,1.7,5.4,330.6,0.24,22.0,25.4
"21/09/04","19:00",0.0,23.0,89.4,1007.6,312.5,0.7,2.9,312.6,0.01,21.2,25.4
"21/09/04","20:00",0.0,22.3,90.9,1008.8,319.2,1.2,2.0,341.4,0.00,20.8,25.3
"21/09/04","21:00",0.0,21.5,92.7,1009.3,298.4,1.1,2.5,314.9,0.00,20.3,25.2
"21/09/04","22:00",0.0,21.6,93.5,1009.5,317.3,1.1,1.7,323.0,0.00,20.5,25.2
"21/09/04","23:00",0.0,21.4,94.1,1009.5,330.7,2.5,3.7,327.8,0.00,20.5,24.9
"21/09/04","24:00",0.0,21.5,94.1,1009.5,310.3,1.1,2.9,339.8,0.00,20.6,24.9
"21/09/05","01:00",0.0,21.4,93.2,1009.5,333.5,1.3,5.5,334.2,0.00,20.3,24.8
"21/09/05","02:00",0.0,21.2,92.7,1009.3,300.3,1.1,2.9,329.7,0.00,20.0,24.6
"21/09/05","03:00",0.0,21.0,92.1,1010.0,321.5,1.1,4.9,343.1,0.00,19.7,24.5
"21/09/05","04:00",0.0,21.2,92.0,1009.7,328.6,1.6,4.2,339.8,0.00,19.9,24.6
"21/09/05","05:00",0.0,20.5,92.8,1010.2,321.0,1.5,2.2,303.1,0.00,19.3,24.2
"21/09/05","06:00",0.0,20.6,93.6,1010.0,317.4,2.1,3.3,339.8,0.00,19.6,24.1
"21/09/05","07:00",0.0,21.5,93.7,1010.9,332.3,1.6,4.1,338.6,0.07,20.5,24.3
"21/09/05","08:00",0.0,24.6,89.6,1010.7,22.0,0.7,3.2,336.0,0.65,22.8,24.2
"21/09/05","09:00",0.0,27.5,72.4,1010.0,143.6,0.8,2.6,143.0,1.80,22.1,24.2
"21/09/05","10:00",0.0,27.4,70.5,1010.2,195.6,1.8,4.1,200.5,2.44,21.6,24.5
"21/09/05","11:00",0.0,29.0,65.9,1010.0,201.5,1.5,4.5,224.4,2.79,22.0,25.0
"21/09/05","12:00",0.0,29.4,61.6,1009.7,204.2,2.0,4.3,211.1,2.88,21.3,25.3
"21/09/05","13:00",0.0,31.1,51.5,1009.7,233.1,1.3,5.0,141.6,3.14,20.0,25.6
"21/09/05","14:00",0.0,30.3,55.5,1009.5,245.4,1.2,3.5,212.3,2.16,20.4,26.1
"21/09/05","15:00",0.0,30.4,56.0,1008.8,260.7,1.2,4.0,207.6,1.70,20.7,26.2
"21/09/05","16:00",0.0,29.9,54.9,1008.6,318.5,1.0,3.5,231.4,1.22,19.9,26.4
"21/09/05","17:00",0.0,30.0,54.0,1008.6,352.4,1.2,3.2,331.8,0.87,19.7,26.4
"21/09/05","18:00",0.0,27.2,65.7,1007.4,320.8,1.6,3.3,341.4,0.20,20.3,26.2
"21/09/05","19:00",0.0,24.8,76.7,1009.0,329.7,1.3,4.8,331.3,0.00,20.5,26.2
"21/09/05","20:00",0.0,24.6,75.6,1010.2,341.2,2.1,6.7,354.6,0.00,20.0,26.1
"21/09/05","21:00",0.0,23.5,79.5,1010.4,314.3,0.8,3.9,344.7,0.00,19.8,26.0
"21/09/05","22:00",0.0,22.9,84.3,1010.7,309.7,1.6,2.8,339.3,0.00,20.2,25.8
"21/09/05","23:00",0.0,22.4,85.5,1011.2,334.3,0.8,3.4,332.4,0.00,19.9,25.6
"21/09/05","24:00",0.0,22.5,86.0,1010.9,313.6,1.8,4.3,326.4,0.00,20.1,25.5
"21/09/06","01:00",0.0,22.3,86.7,1011.2,328.4,2.2,3.5,340.1,0.00,20.0,25.4
"21/09/06","02:00",0.0,22.0,87.2,1010.4,305.8,1.7,4.3,346.1,0.00,19.8,25.1
"21/09/06","03:00",0.0,21.7,88.1,1010.7,335.8,1.7,3.3,331.3,0.00,19.7,25.1
"21/09/06","04:00",0.0,21.9,87.9,1010.7,329.5,2.8,5.0,311.1,0.00,19.8,25.0
"21/09/06","05:00",0.0,21.4,88.3,1010.4,321.7,1.7,4.7,338.5,0.00,19.4,24.9
"21/09/06","06:00",0.0,21.1,89.5,1010.9,322.7,2.5,4.1,352.6,0.00,19.3,24.5
"21/09/06","07:00",0.0,21.8,88.2,1010.7,323.6,2.2,5.2,333.6,0.08,19.8,24.5
"21/09/06","08:00",0.0,25.1,76.6,1010.9,349.8,1.6,4.4,352.1,0.67,20.7,24.6
"21/09/06","09:00",0.0,26.6,68.6,1009.3,331.7,1.1,5.4,348.4,1.24,20.4,24.4
"21/09/06","10:00",0.0,28.3,62.0,1010.4,9.3,1.7,4.3,345.7,2.17,20.4,24.7
"21/09/06","11:00",0.0,27.6,66.6,1009.5,355.6,1.2,5.4,347.7,1.70,20.9,24.9
"21/09/06","12:00",0.0,28.6,62.4,1009.0,338.5,1.6,4.5,340.3,2.26,20.8,25.2
"21/09/06","13:00",0.0,29.7,54.1,1008.8,346.7,2.8,6.2,345.4,3.41,19.5,25.6
"21/09/06","14:00",0.0,29.0,53.8,1007.6,346.9,1.6,6.2,345.3,2.65,18.7,26.0
"21/09/06","15:00",0.0,29.4,52.0,1007.6,354.9,2.6,7.4,350.8,2.50,18.6,26.2
"21/09/06","16:00",0.0,28.5,53.7,1006.7,347.3,2.2,6.5,346.4,1.29,18.2,26.5
"21/09/06","17:00",0.0,27.5,57.2,1006.7,329.8,2.2,5.9,334.4,0.71,18.3,26.4
"21/09/06","18:00",0.0,26.1,62.8,1007.4,325.7,2.0,6.2,341.2,0.26,18.5,26.2
"21/09/06","19:00",0.0,23.8,70.4,1008.3,338.3,1.6,5.1,342.9,0.00,18.1,26.2
"21/09/06","20:00",0.0,22.6,77.8,1009.3,338.9,1.5,3.9,336.8,0.00,18.6,26.0
"21/09/06","21:00",0.0,21.8,79.8,1010.0,337.3,0.8,4.2,346.0,0.00,18.2,25.5
"21/09/06","22:00",0.0,20.1,86.4,1010.4,317.8,0.8,1.8,336.0,0.00,17.8,25.4
"21/09/06","23:00",0.0,20.0,89.1,1010.7,330.4,1.2,2.2,340.8,0.00,18.2,25.4
"21/09/06","24:00",0.0,19.7,90.3,1010.9,337.4,2.1,3.5,337.7,0.00,18.1,25.0
"21/09/07","01:00",0.0,19.6,91.3,1010.7,332.8,1.6,3.2,336.1,0.00,18.2,24.6
"21/09/07","02:00",0.0,19.4,91.5,1010.4,331.1,1.3,3.1,333.8,0.00,18.0,24.5
"21/09/07","03:00",0.0,19.3,92.0,1010.4,342.6,1.2,2.6,339.7,0.00,18.0,24.5
"21/09/07","04:00",0.0,19.4,92.5,1010.2,328.7,2.0,2.8,326.4,0.00,18.2,24.1
"21/09/07","05:00",0.0,19.0,92.5,1010.2,324.6,1.3,3.4,322.7,0.00,17.8,24.0
"21/09/07","06:00",0.0,18.2,93.1,1010.2,328.1,1.2,2.7,324.3,0.00,17.1,23.8
"21/09/07","07:00",0.0,18.5,93.6,1010.4,320.0,0.8,2.0,329.9,0.00,17.5,23.8
"21/09/07","08:00",0.0,22.4,91.3,1010.7,290.9,0.6,1.9,346.0,0.65,21.0,23.7
"21/09/07","09:00",0.0,25.5,74.5,1008.6,102.5,1.0,3.4,178.2,1.41,20.7,23.9
"21/09/07","10:00",0.0,26.9,71.4,1008.8,165.6,0.8,3.2,124.7,1.57,21.3,24.0
"21/09/07","11:00",0.0,28.0,65.1,1009.0,117.0,1.2,3.2,184.0,2.42,20.9,24.5
"21/09/07","12:00",0.0,28.0,61.2,1008.8,205.0,2.0,4.7,231.5,2.34,19.9,24.7
"21/09/07","13:00",0.0,28.3,58.7,1007.8,198.1,1.7,4.8,222.5,1.85,19.5,24.7
"21/09/07","14:00",0.0,28.6,61.0,1007.4,212.3,1.5,3.7,237.2,1.39,20.4,25.2
"21/09/07","15:00",0.0,27.7,66.0,1006.4,162.2,1.6,4.5,199.2,0.99,20.8,25.2
"21/09/07","16:00",0.0,26.7,68.1,1006.2,155.5,1.6,3.9,214.1,0.64,20.4,25.3
"21/09/07","17:00",0.0,25.9,70.9,1007.1,85.6,1.0,3.1,99.4,0.23,20.3,25.2
"21/09/07","18:00",0.0,25.1,73.4,1007.4,50.8,0.8,2.6,114.1,0.01,20.0,25.3
"21/09/07","19:00",0.0,24.1,75.3,1008.1,70.1,1.1,4.0,45.6,0.00,19.5,25.3
"21/09/07","20:00",0.0,23.9,76.0,1008.6,65.6,0.6,4.1,111.3,0.00,19.5,25.1
"21/09/07","21:00",0.0,23.6,75.5,1008.8,50.9,0.7,2.6,112.4,0.00,19.1,24.9
"21/09/07","22:00",0.0,23.5,76.3,1008.8,3.9,0.5,1.9,129.7,0.00,19.1,24.8
"21/09/07","23:00",0.0,23.3,77.4,1008.8,337.2,0.6,2.4,9.5,0.00,19.2,24.7
"21/09/07","24:00",0.0,23.3,78.3,1008.8,40.3,0.6,1.7,102.8,0.00,19.4,24.6
"21/09/08","01:00",0.0,23.2,79.5,1008.3,2.2,0.6,1.8,330.9,0.00,19.5,24.5
"21/09/08","02:00",0.0,23.2,79.5,1007.8,335.2,0.3,1.9,164.5,0.00,19.5,24.5
"21/09/08","03:00",0.0,23.5,77.2,1007.4,352.6,0.7,3.1,130.0,0.00,19.3,24.4
"21/09/08","04:00",0.0,23.4,77.7,1006.7,355.5,0.5,2.1,164.3,0.00,19.3,24.4
"21/09/08","05:00",0.0,23.4,78.6,1006.2,129.0,0.8,3.3,164.2,0.00,19.5,24.2
"21/09/08","06:00",0.0,23.2,78.1,1006.2,329.5,0.6,2.0,139.7,0.00,19.2,24.2
"21/09/08","07:00",0.0,23.6,78.9,1006.2,37.9,0.6,1.8,111.9,0.06,19.8,24.3
"21/09/08","08:00",0.0,24.8,73.8,1006.0,85.9,1.0,3.2,114.4,0.43,19.8,24.4
"21/09/08","09:00",0.0,25.9,72.3,1005.7,42.8,0.7,3.6,25.1,0.74,20.6,24.5
"21/09/08","10:00",0.0,24.9,76.1,1006.2,155.5,1.2,3.2,121.1,0.38,20.4,24.4
"21/09/08","11:00",0.2,25.3,78.4,1005.7,146.2,1.0,4.0,119.2,0.64,21.3,24.4
"21/09/08","12:00",0.2,25.1,80.4,1005.5,118.3,0.7,4.3,192.8,0.85,21.5,24.7
"21/09/08","13:00",3.4,23.8,86.4,1006.2,56.6,0.6,2.6,136.8,0.24,21.4,24.5
"21/09/08","14:00",0.0,24.8,87.3,1005.2,356.7,0.8,3.2,67.9,0.87,22.6,24.6
"21/09/08","15:00",0.0,25.0,84.4,1005.0,56.7,0.7,2.6,113.3,0.42,22.2,24.7
"21/09/08","16:00",0.2,23.9,85.5,1005.5,0.8,0.6,2.7,65.1,0.02,21.4,24.8
"21/09/08","17:00",0.0,23.9,87.7,1005.7,328.5,0.7,2.5,99.2,0.11,21.8,24.9
"21/09/08","18:00",0.0,23.5,89.5,1005.7,328.7,0.8,1.7,316.8,0.03,21.7,24.7
"21/09/08","19:00",0.0,23.0,90.7,1005.7,321.5,1.1,1.8,327.5,0.00,21.4,24.7
"21/09/08","20:00",0.0,22.5,91.5,1006.2,296.1,0.8,1.6,330.3,0.00,21.1,24.9
"21/09/08","21:00",0.0,22.4,92.1,1006.7,294.9,0.8,1.3,306.0,0.00,21.1,24.6
"21/09/08","22:00",0.0,22.2,92.6,1006.7,309.4,1.0,1.6,319.1,0.00,21.0,24.5
"21/09/08","23:00",1.6,21.7,93.3,1006.9,293.4,0.7,2.2,339.6,0.00,20.6,24.4
"21/09/08","24:00",0.2,21.7,93.6,1006.2,299.1,0.1,1.2,321.7,0.00,20.7,24.2
"21/09/09","01:00",3.6,21.7,94.2,1007.6,298.6,1.6,4.2,343.7,0.00,20.8,24.5
"21/09/09","02:00",11.6,21.4,94.7,1006.2,239.4,1.0,4.7,341.4,0.00,20.6,24.0
"21/09/09","03:00",19.6,21.3,95.2,1006.9,229.5,0.7,1.7,344.1,0.00,20.5,23.4
"21/09/09","04:00",12.0,21.3,95.4,1006.4,334.2,0.8,1.4,353.4,0.00,20.6,23.3
"21/09/09","05:00",4.8,21.3,95.7,1006.4,254.4,1.1,2.1,241.4,0.00,20.6,23.4
"21/09/09","06:00",2.6,21.3,96.0,1007.4,280.6,0.6,1.4,239.0,0.00,20.7,23.2
"21/09/09","07:00",0.2,21.6,96.1,1007.8,6.1,0.6,1.2,11.4,0.00,21.0,23.1
"21/09/09","08:00",0.2,22.1,96.1,1007.8,283.8,0.3,1.1,234.5,0.06,21.5,23.3
"21/09/09","09:00",0.0,22.7,96.2,1008.1,302.1,0.5,1.8,341.3,0.44,22.1,23.3
"21/09/09","10:00",0.0,24.1,95.9,1007.6,221.1,0.6,1.9,233.8,0.71,23.4,23.3
"21/09/09","11:00",0.0,25.2,92.7,1007.4,227.5,0.8,2.6,237.9,2.03,24.0,23.6
"21/09/09","12:00",0.0,27.6,79.1,1006.4,81.9,0.7,2.1,238.4,1.24,23.7,23.9
"21/09/09","13:00",0.0,28.8,69.8,1006.4,216.7,0.7,2.7,346.5,1.46,22.8,24.1
"21/09/09","14:00",0.0,29.3,62.8,1005.7,359.0,1.2,3.1,357.3,1.91,21.5,24.5
"21/09/09","15:00",0.0,29.4,58.2,1005.7,9.9,1.7,4.3,13.3,1.57,20.4,24.9
"21/09/09","16:00",0.0,30.6,54.9,1005.7,357.4,1.7,4.1,346.8,1.34,20.5,24.9
"21/09/09","17:00",0.2,29.0,58.3,1005.5,5.1,1.8,4.9,352.0,1.04,20.0,25.2
"21/09/09","18:00",0.0,26.7,65.0,1006.2,340.8,1.7,4.2,330.3,0.22,19.6,25.2
"21/09/09","19:00",0.0,23.6,77.6,1006.9,332.8,1.6,2.8,322.3,0.00,19.5,25.3
"21/09/09","20:00",0.0,23.3,79.2,1008.1,338.4,2.2,3.9,335.9,0.00,19.5,25.0
"21/09/09","21:00",0.0,22.2,81.9,1008.6,337.7,1.2,3.5,343.6,0.00,19.0,24.7
"21/09/09","22:00",0.0,20.4,85.8,1008.8,289.9,0.7,1.9,1.1,0.00,18.0,24.7
"21/09/09","23:00",0.0,20.3,89.2,1009.0,348.0,1.0,2.2,339.5,0.00,18.5,24.6
"21/09/09","24:00",0.0,19.5,90.8,1009.3,318.9,0.5,1.8,338.4,0.00,18.0,24.3
"21/09/10","01:00",0.0,19.9,92.1,1009.5,315.0,1.1,3.7,348.9,0.00,18.6,23.9
"21/09/10","02:00",0.0,19.7,92.5,1010.0,324.2,1.2,3.4,333.6,0.00,18.5,23.9
"21/09/10","03:00",0.0,19.5,92.7,1009.7,331.0,1.3,3.4,338.7,0.00,18.3,23.6
"21/09/10","04:00",0.0,18.9,93.1,1009.7,329.7,1.7,3.3,332.5,0.00,17.8,23.4
"21/09/10","05:00",0.0,19.0,92.4,1010.2,336.1,1.6,4.8,337.8,0.00,17.8,23.4
"21/09/10","06:00",0.0,18.9,92.8,1010.2,323.9,2.1,4.2,348.3,0.00,17.7,23.3
"21/09/10","07:00",0.0,19.6,93.0,1010.4,338.6,2.3,5.0,343.4,0.04,18.5,23.0
"21/09/10","08:00",0.0,22.0,88.8,1010.2,342.1,1.8,4.9,322.8,0.63,20.1,23.2
"21/09/10","09:00",0.0,24.7,77.0,1008.8,311.7,1.0,4.2,339.2,1.53,20.4,23.3
"21/09/10","10:00",0.0,27.3,64.4,1008.8,130.8,0.8,2.1,29.5,2.35,20.0,23.4
"21/09/10","11:00",0.0,29.6,57.0,1009.3,114.7,1.0,3.5,203.8,2.95,20.2,23.8
"21/09/10","12:00",0.0,29.8,48.7,1008.6,217.1,1.6,4.4,224.3,3.27,17.9,24.0
"21/09/10","13:00",0.0,30.6,45.3,1008.1,272.1,1.3,4.0,234.0,3.25,17.5,24.6
"21/09/10","14:00",0.0,32.0,49.7,1008.1,301.1,1.0,4.5,236.4,3.09,20.2,25.2
"21/09/10","15:00",0.0,32.2,51.4,1007.4,241.0,0.7,3.6,206.9,2.29,20.9,25.3
"21/09/10","16:00",0.0,32.8,49.5,1007.8,247.8,0.8,2.8,233.9,1.78,20.9,25.9
"21/09/10","17:00",0.0,31.1,50.9,1006.7,306.5,1.3,3.4,356.1,0.74,19.8,25.9
"21/09/10","18:00",0.0,27.8,65.7,1006.2,335.9,2.0,3.7,343.4,0.14,20.8,26.0
"21/09/10","19:00",0.0,25.5,75.0,1007.1,335.1,1.0,3.4,342.6,0.00,20.8,26.0
"21/09/10","20:00",0.0,24.8,78.4,1007.6,323.7,0.3,2.1,340.4,0.00,20.8,25.6
"21/09/10","21:00",0.0,23.5,81.8,1008.3,280.4,0.2,2.1,339.8,0.00,20.3,25.9
"21/09/10","22:00",0.0,23.1,84.7,1007.8,285.4,1.0,2.2,319.9,0.00,20.4,25.6
"21/09/10","23:00",0.0,23.0,85.7,1007.4,296.5,1.2,1.8,290.6,0.00,20.5,25.3
"21/09/10","24:00",0.0,22.9,86.0,1008.3,300.9,1.1,1.9,332.6,0.00,20.5,25.1
"21/09/11","01:00",0.0,22.8,86.2,1008.1,307.0,1.2,2.5,343.9,0.00,20.4,24.9
"21/09/11","02:00",0.0,22.9,85.6,1008.1,295.7,0.8,3.1,332.1,0.00,20.4,24.9
"21/09/11","03:00",0.0,22.6,86.4,1008.6,324.2,1.1,2.2,336.7,0.00,20.3,24.7
"21/09/11","04:00",0.0,22.4,87.6,1008.1,323.8,1.5,2.6,331.1,0.00,20.3,24.7
"21/09/11","05:00",0.0,22.6,87.5,1008.3,275.0,0.8,2.6,340.0,0.00,20.5,24.6
"21/09/11","06:00",0.0,22.2,88.6,1008.8,297.9,1.0,1.9,343.4,0.00,20.3,24.6
"21/09/11","07:00",0.4,22.1,89.8,1009.3,307.5,1.0,1.7,327.4,0.00,20.4,24.4
"21/09/11","08:00",1.0,22.2,91.0,1009.3,313.7,0.6,1.4,345.8,0.02,20.7,24.2
"21/09/11","09:00",0.8,22.5,92.1,1009.0,291.6,0.3,2.0,342.4,0.05,21.2,24.4
"21/09/11","10:00",0.0,23.3,92.6,1008.8,297.7,0.6,1.4,343.4,0.34,22.1,24.2
"21/09/11","11:00",0.0,25.9,90.8,1008.1,154.7,0.8,2.2,133.8,1.59,24.3,24.4
"21/09/11","12:00",0.0,27.5,80.2,1007.4,349.2,1.0,2.8,230.4,1.84,23.8,24.6
"21/09/11","13:00",0.0,28.3,73.6,1007.1,201.9,1.8,4.7,210.7,2.62,23.2,25.0
"21/09/11","14:00",0.0,28.8,70.1,1007.1,217.8,0.5,3.5,198.2,1.47,22.8,25.3
"21/09/11","15:00",0.0,28.3,73.4,1005.5,316.7,0.6,2.2,200.9,0.62,23.1,25.6
"21/09/11","16:00",0.2,29.3,65.4,1006.0,280.2,0.8,2.1,195.4,1.26,22.2,25.7
"21/09/11","17:00",0.0,29.0,67.6,1005.2,318.9,0.8,2.4,353.2,0.68,22.4,26.0
"21/09/11","18:00",0.0,26.7,79.4,1005.0,328.8,0.7,2.4,331.1,0.13,22.9,25.7
"21/09/11","19:00",0.0,25.0,84.7,1006.0,316.4,0.8,1.9,330.8,0.00,22.3,25.7
"21/09/11","20:00",0.0,24.2,87.4,1007.4,295.0,0.8,2.1,341.4,0.00,22.0,25.8
"21/09/11","21:00",0.0,23.8,88.7,1007.4,307.2,0.8,1.9,342.9,0.00,21.9,25.6
"21/09/11","22:00",0.0,23.8,89.1,1007.4,336.7,1.1,2.0,253.9,0.00,21.9,25.4
"21/09/11","23:00",0.0,23.1,90.0,1007.1,319.9,1.2,2.4,331.9,0.00,21.4,25.1
"21/09/11","24:00",0.0,22.5,90.9,1006.7,297.7,1.1,1.7,333.0,0.00,21.0,25.2
"21/09/12","01:00",0.0,22.3,91.8,1006.7,285.4,0.7,2.0,331.3,0.00,20.9,24.9
"21/09/12","02:00",0.0,22.3,92.3,1006.4,299.0,0.8,2.1,336.8,0.00,21.0,24.8
"21/09/12","03:00",0.0,22.2,92.6,1006.9,322.3,1.1,1.9,333.5,0.00,21.0,24.8
"21/09/12","04:00",0.0,22.1,92.7,1006.7,314.7,1.2,2.1,336.3,0.00,20.9,24.7
"21/09/12","05:00",0.0,21.9,92.4,1007.1,305.9,0.8,2.6,342.6,0.00,20.7,24.6
"21/09/12","06:00",0.0,21.8,92.4,1007.6,322.6,1.2,2.8,330.2,0.00,20.6,24.5
"21/09/12","07:00",0.0,21.8,92.6,1008.1,320.9,1.2,2.4,327.7,0.03,20.6,24.3
"21/09/12","08:00",0.0,24.1,91.1,1007.6,307.1,0.6,1.6,336.7,0.48,22.6,24.3
"21/09/12","09:00",0.0,25.3,85.7,1007.4,244.1,0.2,1.2,318.3,0.61,22.8,24.5
"21/09/12","10:00",0.0,25.9,80.5,1007.4,194.4,0.8,2.2,237.4,0.66,22.3,24.6
"21/09/12","11:00",0.0,26.2,78.1,1006.7,208.7,1.0,2.2,212.0,0.84,22.1,24.5
"21/09/12","12:00",0.0,26.3,78.2,1005.7,160.0,0.5,2.8,230.0,0.71,22.2,25.0
"21/09/12","13:00",0.0,26.5,77.2,1005.2,49.4,0.5,1.8,240.4,0.68,22.2,25.0
"21/09/12","14:00",0.0,27.0,77.3,1006.2,191.6,1.7,3.5,234.7,1.14,22.7,24.9
"21/09/12","15:00",0.0,26.6,77.0,1005.7,164.6,1.1,3.5,136.7,1.00,22.3,24.9
"21/09/12","16:00",0.0,26.1,77.5,1005.2,153.3,0.7,3.3,235.7,0.43,21.9,25.0
"21/09/12","17:00",0.0,26.4,79.0,1006.4,325.8,0.7,1.8,190.1,0.32,22.5,25.2
"21/09/12","18:00",0.0,24.9,83.9,1006.9,325.1,0.7,1.7,332.6,0.08,22.0,25.1
"21/09/12","19:00",0.0,23.9,87.7,1008.3,296.1,0.7,2.0,341.4,0.00,21.8,25.2
"21/09/12","20:00",0.0,23.3,89.6,1009.0,316.8,1.1,1.8,321.9,0.00,21.5,25.0
"21/09/12","21:00",0.0,22.6,90.7,1009.7,310.5,0.8,1.4,332.8,0.00,21.0,24.9
"21/09/12","22:00",0.0,22.5,91.7,1010.0,314.8,1.1,2.0,341.9,0.00,21.1,24.7
"21/09/12","23:00",0.0,22.2,92.6,1010.0,315.8,1.5,2.7,338.6,0.00,21.0,24.8
"21/09/12","24:00",0.0,22.0,92.8,1010.4,336.1,1.2,3.1,342.7,0.00,20.8,24.5
"21/09/13","01:00",0.0,21.6,92.9,1010.4,334.5,1.0,2.8,337.3,0.00,20.4,24.5
"21/09/13","02:00",0.0,20.9,93.4,1010.9,327.9,1.1,1.8,337.3,0.00,19.8,24.5
"21/09/13","03:00",0.0,21.2,93.7,1010.9,337.0,1.3,2.6,338.7,0.00,20.2,24.4
"21/09/13","04:00",0.0,20.8,94.1,1011.4,327.2,1.6,3.7,327.1,0.00,19.9,24.2
"21/09/13","05:00",0.0,20.9,94.3,1011.9,333.0,2.0,3.2,328.0,0.00,20.0,24.2
"21/09/13","06:00",0.0,21.1,94.1,1011.6,328.4,1.8,3.5,325.7,0.00,20.2,23.9
"21/09/13","07:00",0.0,21.7,93.1,1012.1,330.5,2.2,4.5,342.3,0.04,20.6,23.9
"21/09/13","08:00",0.0,23.1,90.0,1012.3,331.7,2.0,3.6,335.1,0.37,21.4,24.0
"21/09/13","09:00",0.0,25.2,77.7,1012.3,347.7,1.2,2.9,341.7,0.83,21.1,24.1
"21/09/13","10:00",0.0,26.3,67.2,1011.6,355.1,1.1,4.2,346.3,1.61,19.8,24.0
"21/09/13","11:00",0.0,27.5,64.0,1011.9,356.5,2.0,5.2,344.5,1.96,20.1,24.4
"21/09/13","12:00",0.0,26.6,65.0,1011.6,334.6,1.8,4.3,340.4,1.69,19.5,24.5
"21/09/13","13:00",0.0,28.3,59.0,1011.6,351.6,1.5,5.5,345.2,2.38,19.6,24.8
"21/09/13","14:00",0.0,28.7,55.4,1011.6,350.6,1.5,4.7,345.6,2.54,18.9,24.9
"21/09/13","15:00",0.0,27.6,58.3,1010.4,344.0,2.1,4.8,347.2,1.46,18.7,25.3
"21/09/13","16:00",0.0,27.0,59.8,1010.0,335.2,2.1,5.4,336.0,1.20,18.6,25.4
"21/09/13","17:00",0.0,25.7,61.6,1010.4,340.1,2.5,5.1,345.6,0.57,17.8,25.6
"21/09/13","18:00",0.0,24.0,63.9,1011.6,336.9,2.7,6.6,353.8,0.17,16.8,25.5
"21/09/13","19:00",0.0,22.6,68.9,1011.9,334.3,2.1,5.5,353.5,0.00,16.6,25.2
"21/09/13","20:00",0.0,21.8,71.7,1012.3,332.8,1.3,5.1,327.5,0.00,16.5,24.9
"21/09/13","21:00",0.0,20.9,74.7,1013.0,292.5,0.8,3.9,337.9,0.00,16.3,24.8
"21/09/13","22:00",0.0,20.4,77.2,1013.5,297.0,1.0,3.3,324.4,0.00,16.3,24.3
"21/09/13","23:00",0.0,19.4,82.6,1013.5,332.0,1.3,2.6,338.5,0.00,16.4,24.4
"21/09/13","24:00",0.0,19.4,80.1,1014.0,316.0,1.6,3.9,344.0,0.00,15.9,24.3
"21/09/14","01:00",0.0,19.5,81.8,1014.0,334.9,2.0,3.7,351.0,0.00,16.3,23.9
"21/09/14","02:00",0.0,19.6,82.4,1013.0,331.2,1.8,3.3,319.1,0.00,16.6,23.9
"21/09/14","03:00",0.0,19.8,83.7,1013.8,334.5,1.7,4.9,331.2,0.00,17.0,23.6